Regional Weather Roundup
Issued by NWS

Home | Current Version | Previous Version | Text Only | Print | Product List | Glossary On
Versions: 1 2 3 4 5 6 7 8 9 10 11 12 13 14 15 16 17 18 19 20 21 22 23 24 25 26 27 28 29 30 31 32 33 34 35 36 37 38 39 40 41 42 43 44 45 46 47 48 49 50
000
ASHW40 PHFO 270630
RWRHI

WEATHER ROUNDUP FOR HAWAII
NATIONAL WEATHER SERVICE HONOLULU HI
800 PM HST SUN APR 26 2015

THIS IS AN AUTOMATED REPORT THAT HAS NOT BEEN QUALITY CONTROLLED.

NOTE..."FAIR" INDICATES FEW OR NO CLOUDS BELOW 12,000 FEET WITH NO
SIGNIFICANT WEATHER AND/OR OBSTRUCTIONS TO VISIBILITY.

* - THESE SITES REPORT LIMITED FIELDS

HIZ001>004-270700-
KAUAI-NIIHAU-

CITY           SKY/WX    TMP DP  RH WIND       PRES   REMARKS
LIHUE APT      MOCLDY    73  64  73 N18       30.05R
PORT ALLEN*      N/A     75 N/A N/A NE12        N/A
POIPU*           N/A     73 N/A N/A N8G20       N/A
PRINCEVILLE*     N/A     72 N/A N/A MISG        N/A
KOKOLE POINT*  NOT AVBL
MOLOAA DAIRY*  NOT AVBL
WAIMEA HTS*    NOT AVBL
PUU OPAE*      NOT AVBL
PUU LUA*       NOT AVBL
MAKAHA RIDGE*    N/A     64  61  88 NE7G16      N/A
$$

HIZ005>011-270700-
OAHU-

CITY           SKY/WX    TMP DP  RH WIND       PRES   REMARKS
HONOLULU       LGT RAIN  70  70 100 N3        30.02R FOG
KALAELOA       LGT RAIN  75  68  78 NE7       30.02R
KANEOHE MCB    LGT RAIN  72  71  97 NE14      30.00R
WHEELER FIELD  FAIR      70  68  94 NW6       30.02
BELLOWS*         N/A    N/A N/A N/A NE10G16     N/A
KAHUKU*          N/A    N/A N/A N/A NE2G12      N/A
WHEELER*       NOT AVBL
WAIANAE HARBOR NOT AVBL
DILLINGHAM*      N/A     73  68  83 MISG        N/A
KAHUKU TRN*      N/A     70  68  94 NE3G14      N/A
KAWAILOA*        N/A     68  66  94 NE7G15      N/A
KII*             N/A     73  70  88 NW7G16      N/A
MAKUA RANGE*     N/A     73  66  78 E13G22      N/A
OAHU FOREST NW NOT AVBL
SCHOFIELD BRK*   N/A     70  68  94 MISG        N/A
SCHOFIELD S*   NOT AVBL
WAIANAE VLY*   NOT AVBL
KUAOKALA*      NOT AVBL
HONOULIUULI*   NOT AVBL
MOKUOLOE IS*   NOT AVBL
PALEHUA*       NOT AVBL
WAIAWA PHB*    NOT AVBL
$$

HIZ012>013-270700-
MOLOKAI-

CITY           SKY/WX    TMP DP  RH WIND       PRES   REMARKS
MOLOKAI AIRPT  CLOUDY    72  70  94 N8        30.04R
KALAUPAPA      NOT AVBL
MAKAPULAPAI*   NOT AVBL
MOLOKAI 1*     NOT AVBL
PUU ALII*        N/A     61  61 100 CALM        N/A
$$

HIZ016-270700-
KAHOOLAWE-

CITY           SKY/WX    TMP DP  RH WIND       PRES   REMARKS
KAHOOLAWE*     NOT AVBL
HAKIOAWA*        N/A     72  69  91 MISG      30.45R
HONOKANAIA*      N/A     79  70  74 SW3       30.02
KANELOA*         N/A     72  70  94 MISG      29.22R
KEALIALALO*      N/A     73  70  88 S3        30.03R
LUA MAKIKA*    NOT AVBL
$$

HIZ014>015-270700-
LANAI-

CITY           SKY/WX    TMP DP  RH WIND       PRES   REMARKS
LANAI CITY     CLOUDY    70  66  88 NW6       30.07R
LANAI 1*       NOT AVBL
$$

HIZ017>028-270700-
MAUI-

CITY           SKY/WX    TMP DP  RH WIND       PRES   REMARKS
KAHULUI        RAIN      73  70  88 CALM      30.03R FOG
KAPALUA-W MAUI NOT AVBL
HANA AIRPORT   LGT RAIN  73  70  88 SW3       30.06R VSB 1/2
HANA*            N/A     75 N/A N/A VRB7G14     N/A
HALEAKALA SUMM   N/A     46  46 100 N18         N/A
MAALAEA BAY*   NOT AVBL
HALEAKALA*     NOT AVBL
KAUPO GAP*     NOT AVBL
KULA 1*          N/A     55  55 100 NE3G9       N/A
$$

HIZ023>026-270700-
BIG ISLAND OF HAWAII COAST AND LOWER SLOPES-

CITY           SKY/WX    TMP DP  RH WIND       PRES   REMARKS
KAILUA KONA    CLOUDY    79  69  71 N12       29.98R
HILO           CLOUDY    73  68  84 SW6       30.03R
HONOKAA*       NOT AVBL
KAWAIHAE MWT*    N/A     79 N/A N/A E5          N/A
KAWAIHAE*        N/A     79 N/A N/A E3          N/A
SOUTH POINT*     N/A     70 N/A N/A E5          N/A
UPOLU AIRPORT*   N/A    N/A N/A N/A SE7         N/A
KAMUELA*       PTCLDY    63  61  94 CALM      30.12R
HAKALAU*         N/A     53  53  98 N2          N/A
KALOKO-HONOKO*   N/A     79  66  65 NW10      29.98R
PALI 2*          N/A     63  63 100 CALM        N/A
KEALAKOMO*       N/A     75  66  73 N5G10       N/A
KAUPULEHU*     NOT AVBL
KAPAPALA*        N/A     66  65  95 N2          N/A
LOWER KAHUKU*    N/A    N/A N/A N/A VRB1        N/A
PUHE CS*         N/A     79  66  65 E3          N/A
PUHO CS*         N/A     73  32  22 E1          N/A
PTA KEAMUKU*     N/A    N/A N/A N/A CALM        N/A
WAIKOLOA*      NOT AVBL
$$

HIZ027>028-270700-
BIG ISLAND OF HAWAII INTERIOR AND SUMMMITS-

CITY           SKY/WX    TMP DP  RH WIND       PRES   REMARKS
BRADSHAW FIELD PTCLDY    57  54  88 CALM      30.32R
MK VISITOR CEN NOT AVBL
MAUNA KEA*       N/A     36   3  25 NW14        N/A  WCI  27
MAUNA LOA*       N/A     45  32  61 MISG        N/A
MAUNA LOA 1*   NOT AVBL
PTA KIPUKA*      N/A     59  57  94 N3          N/A
PTA RANGE 17*    N/A     57  55  94 N2G8        N/A
PTA WEST*        N/A     66  66 100 NW3         N/A
NENE CABIN*      N/A     54 N/A N/A E2          N/A
AHUMOA*        NOT AVBL
PTA PORTABLE*  NOT AVBL
PUU MALI*        N/A     54  50  87 E3          N/A
$$

HIC003-270700-
NORTHWEST ISLANDS-

CITY           SKY/WX    TMP DP  RH WIND       PRES   REMARKS
MIDWAY ISLAND  MOCLDY    66  55  68 E24G32    30.32S
MIDWAY NOS*    NOT AVBL
FRENCH FRIGATE NOT AVBL
$$

PHZ110>124-180-270700-
BUOY REPORTS

STATION/POSITION TIME  TEMP    WIND        PRES    WAVE   SWELL
                       AIR SEA DIR/SP/G            HT/PER HT/DIR
                 (UTC) (F)     (DEG/KT/KT) (MB)    (FT/S) (FT/D)
BUOY 51001       NOT AVBL
BUOY 51101       0600   72 76   50/ 25/ 29 1018.8R  17/13  11/350
BUOY 51100       0600           50/ 21       N/A
BUOY 51002       0600   78 79   70/ 14/ 16 1014.1R   7/10   7/100
BUOY 51003       0600   76 79   40/  6/  8 1015.4R   6/ 9   5
BUOY 51004       0533   77 78   90/ 12/ 16 1015.3R   7/ 9   7/100
BARBERS PT BUOY  NOT AVBL
WAIMEA BAY BUOY  0600      78                N/A     4/14   2/320
KAILUA BAY BUOY  0600      77                N/A     6/ 9   2/ 70
LANAI BUOY       0600      79                N/A     3/12   2/180
BARBERS PT 2     0600      78                N/A     4/15   2/230
PAUWELA MAUI     0600      77                N/A     5/ 9   2/ 50
HILO             0600      77                N/A     6/ 9   2/ 80
KANEOHE BAY BUOY 0600      77                N/A     5/ 9   2/ 50
HANALEI KAUAI    0600      78                N/A     7/13   5/310
KAHULUI HARBOR   0600   73 78  140/  2/  4 1016.0R
HONOLULU HARBOR  0600   74 80   60/  5/  6 1016.3R
KILO NALU        NOT AVBL
HILO HARBOR      0600   73 76  210/  4/  5 1016.0R
MOKUOLOE         0600   73 78   20/ 12/ 15 1016.4R
NAWILIWILI       0600   73 78  350/  5/  7 1017.3R
WHOTS BUOY       NOT AVBL
BUOY 51028       NOT AVBL
$$

......................KEY........................................
  SKY/WX - SKY CONDITIONS/PRESENT WEATHER
  TMP    - TEMPERATURE IN FAHRENHEIT
  DWPT   - DEWPOINT IN FAHRENHEIT
  RH     - RELATIVE HUMIDITY IN PERCENT
  WIND   - DIRECTION AND SPEED /MPH FOR ISLANDS...KTS FOR BUOYS/
  PRES   - MEAN SEA LEVEL PRESSURE IN INCHES OF HG
  VSB    - VISIBILITY IN MILES
  HX     - HEAT INDEX
  WCI    - WIND CHILL INDEX
  VRB    - VARIABLE WIND DIRECTION
  N/A    - NOT AVAILABLE



USA.gov is the U.S. government's official web portal to all federal, state and local government web resources and services.